1489683601.14,55658,9.63,72930.5,-10.63,-20.99,-20.89,0,*6E
1489683602.39,55659,9.63,72914.3,-10.65,-19.23,-17.83,0,*6C
1489683603.68,55660,9.63,72906.3,-10.63,-17.59,-17.45,0,*69
1489683604.97,55661,9.63,72886.3,-10.63,-17.25,-16.27,0,*66
1489683606.23,55662,9.63,72876.5,-10.65,-14.93,-15.39,0,*61
1489683607.45,55663,9.63,72834.5,-10.65,-15.07,-15.53,0,*60
1489683608.66,55664,9.63,72886.3,-10.65,-17.31,-16.93,0,*6F
1489683609.9,55665,9.63,72924.3,-10.65,-17.73,-15.89,0,*60
1489683611.17,55666,9.63,72968.3,-10.67,-16.51,-14.89,0,*61
1489683612.43,55667,9.63,72948.5,-10.67,-15.15,-13.87,0,*6A
1489683613.72,55668,9.63,72950.8,-10.67,-14.05,-13.87,0,*65
1489683614.97,55669,9.63,72946.8,-10.65,-14.01,-14.37,0,*6E
1489683616.23,55670,9.63,72916.8,-10.63,-14.65,-14.75,0,*64
1489683617.49,55671,9.63,72896.3,-10.65,-15.21,-14.51,0,*64
1489683618.72,55672,9.63,72892.5,-10.65,-15.53,-13.87,0,*6E
1489683619.94,55673,9.63,72878.3,-10.69,-15.25,-13.19,0,*65
1489683621.19,55674,9.63,72894.3,-10.67,-14.19,-12.43,0,*6C
1489683622.49,55675,9.63,72910.5,-10.67,-12.53,-12.35,0,*64
1489683623.73,55676,9.63,72890.3,-10.67,-12.43,-12.43,0,*67
1489683625.0,55677,9.63,72888.0,-10.67,-12.35,-12.47,0,*63
1489683626.27,55678,9.63,72824.3,-10.67,-12.29,-12.75,0,*60
1489683627.51,55679,9.63,72786.8,-10.69,-13.11,-14.55,0,*61
1489683628.73,55680,9.63,72908.5,-10.69,-14.11,-15.11,0,*61
1489683630.01,55681,9.63,72930.8,-10.67,-14.01,-15.15,0,*6B
1489683631.22,55682,9.63,72954.8,-10.69,-15.25,-19.17,0,*6F
1489683632.47,55683,9.63,72952.3,-10.67,-19.13,-21.73,0,*60
1489683633.7,55684,9.63,72960.3,-10.69,-20.99,-22.41,0,*63
1489683634.93,55685,9.63,72974.8,-10.69,-22.57,-22.27,0,*62
1489683636.16,55686,9.63,72978.8,-10.69,-23.69,-19.91,0,*68
1489683637.37,55687,9.63,72958.0,-10.69,-20.39,-17.31,0,*6B
1489683638.64,55688,9.63,72940.3,-10.73,-17.93,-16.31,0,*6A
1489683639.9,55689,9.63,72952.0,-10.71,-16.09,-15.67,0,*6B
1489683641.14,55690,9.63,72950.5,-10.73,-15.99,-15.85,0,*67
1489683642.41,55691,9.63,72940.0,-10.71,-15.57,-15.25,0,*6C
1489683643.66,55692,9.63,72938.8,-10.73,-15.71,-15.35,0,*68
1489683644.93,55693,9.63,72932.3,-10.71,-16.09,-15.07,0,*66
1489683646.19,55694,9.63,72928.0,-10.71,-14.19,-13.37,0,*67
1489683647.45,55695,9.63,72942.5,-10.71,-13.11,-12.65,0,*6F
1489683648.69,55696,9.63,72930.8,-10.73,-12.39,-12.15,0,*62
1489683649.96,55697,9.63,72932.0,-10.73,-11.97,-11.89,0,*62
1489683651.26,55698,9.63,72942.3,-10.71,-11.93,-11.85,0,*67
1489683652.54,55699,9.63,72946.0,-10.71,-11.85,-11.85,0,*61
1489683653.83,55700,9.63,72944.3,-10.71,-11.73,-11.73,0,*60
1489683655.09,55701,9.63,72946.0,-10.73,-11.85,-11.77,0,*6E
1489683656.38,55702,9.63,72956.5,-10.71,-11.73,-11.73,0,*62
1489683657.66,55703,9.63,72944.3,-10.71,-11.81,-11.85,0,*67
1489683658.95,55704,9.63,72942.8,-10.71,-11.85,-11.81,0,*60
1489683660.21,55705,9.63,72950.8,-10.69,-11.73,-11.73,0,*6C
1489683661.47,55706,9.63,72940.0,-10.69,-11.73,-11.67,0,*6A
1489683662.73,55707,9.63,72932.3,-10.69,-11.81,-11.85,0,*6A
1489683664.0,55708,9.63,72930.5,-10.69,-12.07,-12.07,0,*61
1489683665.22,55709,9.69,72918.5,-10.69,-12.21,-12.21,0,*60
1489683666.5,55710,9.63,72886.3,-10.69,-12.35,-12.35,0,*68
1489683667.77,55711,9.63,72858.8,-10.69,-12.35,-12.35,0,*69
1489683668.99,55712,9.69,72864.8,-10.69,-12.21,-12.21,0,*6A
1489683670.29,55713,9.63,72904.0,-10.67,-12.07,-12.07,0,*65
1489683671.55,55714,9.63,72976.8,-10.71,-12.11,-12.21,0,*66
1489683672.8,55715,9.63,72950.8,-10.69,-12.21,-12.11,0,*6E
1489683674.05,55716,9.69,72952.8,-10.69,-12.11,-12.21,0,*6D
1489683675.27,55717,9.63,72944.3,-10.69,-12.21,-12.25,0,*6B
1489683676.54,55718,9.63,72908.8,-10.69,-12.35,-12.35,0,*60
1489683677.78,55719,9.63,72842.3,-10.69,-12.35,-12.25,0,*60
1489683679.0,55720,9.63,72922.0,-10.69,-12.25,-12.25,0,*6B
1489683680.22,55721,9.63,72962.3,-10.69,-12.29,-12.43,0,*66
1489683681.48,55722,9.63,72974.0,-10.67,-12.75,-13.15,0,*60
1489683682.72,55723,9.63,72954.5,-10.69,-12.97,-12.83,0,*6D
1489683683.99,55724,9.63,72956.8,-10.69,-12.79,-12.53,0,*67
1489683685.23,55725,9.63,72954.8,-10.69,-12.35,-12.25,0,*6F
1489683686.48,55726,9.63,72960.5,-10.69,-12.25,-12.35,0,*6C
1489683687.72,55727,9.63,72962.3,-10.67,-12.47,-12.43,0,*66
1489683688.94,55728,9.63,72960.0,-10.69,-12.97,-13.11,0,*6C
1489683690.2,55729,9.63,72954.8,-10.67,-13.37,-13.47,0,*6B
1489683691.41,55730,9.63,72954.5,-10.69,-13.93,-13.93,0,*6A
1489683692.65,55731,9.63,72948.3,-10.69,-14.51,-14.23,0,*6E
1489683693.89,55732,9.63,72954.5,-10.67,-14.19,-13.47,0,*6A
1489683695.16,55733,9.63,72952.0,-10.69,-13.29,-12.65,0,*60
1489683696.42,55734,9.63,72890.8,-10.67,-12.61,-12.43,0,*60
1489683697.69,55735,9.63,72884.8,-10.67,-12.35,-12.21,0,*64
1489683698.94,55736,9.63,72904.5,-10.67,-12.21,-12.03,0,*62
1489683700.21,55737,9.63,72844.8,-10.67,-12.03,-11.93,0,*69
1489683701.51,55738,9.63,72924.5,-10.67,-11.93,-11.93,0,*6C
1489683702.8,55739,9.63,72894.3,-10.67,-11.89,-11.93,0,*66
1489683704.07,55740,9.63,72904.5,-10.67,-12.07,-12.29,0,*6F
1489683705.32,55741,9.63,72908.3,-10.67,-12.29,-12.21,0,*6A
1489683706.61,55742,9.63,72924.0,-10.67,-12.15,-12.15,0,*61
1489683707.86,55743,9.63,72956.5,-10.67,-12.29,-12.29,0,*60
1489683709.12,55744,9.63,72974.3,-10.67,-12.53,-13.15,0,*64
1489683710.37,55745,9.63,72980.5,-10.69,-13.55,-14.51,0,*6B
1489683711.64,55746,9.63,72998.8,-10.67,-16.09,-16.83,0,*67
1489683712.91,55747,9.63,72952.5,-10.65,-17.55,-17.11,0,*66
1489683714.12,55748,9.63,72942.5,-10.65,-16.97,-16.83,0,*6C
1489683715.36,55749,9.63,72952.5,-10.65,-15.15,-14.79,0,*63
1489683716.58,55750,9.63,72956.8,-10.65,-14.89,-14.61,0,*66
1489683717.82,55751,9.63,72940.0,-10.67,-14.61,-14.33,0,*64
1489683719.09,55752,9.63,72912.3,-10.67,-14.47,-13.93,0,*6E
1489683720.3,55753,9.63,72904.5,-10.65,-13.93,-14.61,0,*69
1489683721.58,55754,9.63,72922.5,-10.67,-16.23,-18.59,0,*65
1489683722.87,55755,9.63,72922.8,-10.67,-22.77,-23.29,0,*6D
1489683724.14,55756,9.63,72940.8,-10.67,-23.89,-24.41,0,*67
1489683725.38,55757,9.63,72950.8,-10.69,-21.87,-22.11,0,*67
1489683726.65,55758,9.63,72966.3,-10.69,-19.85,-20.19,0,*6B
1489683727.89,55759,9.63,72980.3,-10.69,-18.83,-18.93,0,*64
1489683729.15,55760,9.63,73028.8,-10.67,-18.35,-18.79,0,*69
1489683730.36,55761,9.63,72956.3,-10.69,-21.17,-21.73,0,*6C
1489683731.6,55762,9.63,73010.3,-10.69,-21.13,-20.19,0,*66
1489683732.89,55763,9.63,72972.0,-10.71,-23.53,-21.03,0,*62
1489683734.13,55764,9.63,72960.0,-10.69,-21.13,-17.21,0,*6F
1489683735.37,55765,9.63,72946.3,-10.67,-16.79,-13.51,0,*6B
1489683736.61,55766,9.63,72966.5,-10.69,-13.79,-12.39,0,*6C
1489683737.83,55767,9.63,72952.5,-10.69,-12.47,-12.39,0,*61
1489683739.05,55768,9.63,72964.8,-10.69,-12.39,-12.39,0,*67
1489683740.29,55769,9.63,72988.3,-10.69,-12.35,-12.47,0,*63
1489683741.53,55770,9.63,72956.0,-10.69,-12.53,-13.11,0,*69
1489683742.74,55771,9.63,72946.0,-10.69,-13.55,-14.19,0,*60
1489683744.01,55772,9.63,72960.8,-10.69,-14.97,-14.83,0,*69
1489683745.24,55773,9.63,72956.0,-10.69,-14.69,-14.51,0,*66
1489683746.51,55774,9.63,72978.0,-10.69,-14.79,-15.43,0,*62
1489683747.75,55775,9.63,72948.3,-10.69,-14.51,-15.07,0,*69
1489683749.05,55776,9.63,72938.5,-10.71,-15.39,-15.81,0,*62
1489683750.28,55777,9.63,72872.3,-10.71,-14.69,-15.07,0,*69
1489683751.51,55778,9.63,72876.3,-10.71,-14.65,-15.11,0,*6D
1489683752.79,55779,9.63,72904.5,-10.71,-14.51,-15.25,0,*6C
1489683754.06,55780,9.63,72902.3,-10.73,-16.65,-17.17,0,*6E
1489683755.32,55781,9.63,72910.5,-10.71,-17.11,-17.49,0,*64
1489683756.59,55782,9.63,72920.8,-10.73,-16.31,-16.17,0,*6C
1489683757.88,55783,9.63,72958.3,-10.71,-15.43,-15.81,0,*65
1489683759.15,55784,9.63,72946.3,-10.71,-15.53,-16.31,0,*6B
1489683760.39,55785,9.56,72948.5,-10.73,-16.51,-16.79,0,*65
1489683761.65,55786,9.63,72956.0,-10.71,-17.11,-16.97,0,*61
1489683762.9,55787,9.63,72962.0,-10.73,-16.13,-16.03,0,*6C
1489683764.17,55788,9.63,72934.5,-10.73,-15.89,-17.03,0,*62
1489683765.4,55789,9.63,72934.5,-10.73,-19.37,-20.39,0,*67
1489683766.64,55790,9.63,72894.0,-10.73,-18.89,-18.07,0,*6D
1489683767.91,55791,9.63,72922.8,-10.73,-16.31,-14.97,0,*64
1489683769.12,55792,9.63,72934.3,-10.73,-14.61,-14.11,0,*6E
1489683770.34,55793,9.63,72920.3,-10.73,-13.69,-13.23,0,*66
1489683771.6,55794,9.63,72892.8,-10.73,-12.97,-12.71,0,*67
1489683772.87,55795,9.56,72960.8,-10.73,-12.57,-12.75,0,*6E
1489683774.14,55796,9.63,72912.8,-10.73,-13.01,-13.61,0,*6B
1489683775.35,55797,9.56,72902.5,-10.73,-13.47,-13.55,0,*6F
1489683776.56,55798,9.63,72918.8,-10.73,-13.43,-13.47,0,*67
1489683777.83,55799,9.63,72878.5,-10.75,-13.97,-13.69,0,*65
1489683779.1,55800,9.63,72880.5,-10.73,-13.83,-13.37,0,*62
1489683780.37,55801,9.63,72884.5,-10.71,-12.97,-12.71,0,*66
1489683781.65,55802,9.56,72906.8,-10.73,-12.71,-12.53,0,*6F
1489683782.91,55803,9.63,72916.5,-10.73,-12.71,-12.83,0,*63
1489683784.16,55804,9.63,72944.8,-10.71,-13.51,-14.37,0,*6C
1489683785.38,55805,9.63,72926.3,-10.73,-14.29,-14.69,0,*6C
1489683786.63,55806,9.63,72936.3,-10.73,-14.15,-14.47,0,*6C
1489683787.85,55807,9.56,72952.0,-10.73,-14.11,-14.11,0,*6A
1489683789.14,55808,9.56,72948.0,-10.71,-13.79,-14.05,0,*6B
1489683790.38,55809,9.63,72984.3,-10.73,-16.89,-17.41,0,*61
1489683791.63,55810,9.63,72938.0,-10.73,-15.75,-14.83,0,*64
1489683792.85,55811,9.63,72908.0,-10.73,-13.69,-13.43,0,*65
1489683794.11,55812,9.56,72916.5,-10.71,-13.19,-13.37,0,*60
1489683795.35,55813,9.63,72946.0,-10.73,-13.01,-13.69,0,*61
1489683796.65,55814,9.63,72972.3,-10.71,-13.83,-15.85,0,*6A
1489683797.91,55815,9.63,72966.5,-10.73,-16.69,-18.59,0,*64
1489683799.16,55816,9.63,72976.5,-10.73,-16.89,-17.07,0,*6D
1489683800.41,55817,9.63,72972.5,-10.73,-17.17,-16.79,0,*62
1489683801.62,55818,9.63,72970.8,-10.73,-15.99,-15.75,0,*66
1489683802.84,55819,9.63,72982.0,-10.73,-15.15,-15.15,0,*65
1489683804.06,55820,9.63,72966.3,-10.73,-16.03,-17.69,0,*62
1489683805.34,55821,9.63,72930.3,-10.73,-17.03,-17.03,0,*6E
1489683806.6,55822,9.63,72928.8,-10.71,-15.57,-16.83,0,*65
1489683807.82,55823,9.63,72890.0,-10.73,-16.45,-16.37,0,*69
1489683809.05,55824,9.63,72948.3,-10.71,-17.31,-19.71,0,*63
1489683810.27,55825,9.63,72944.8,-10.73,-22.27,-23.13,0,*6C
1489683811.52,55826,9.63,72946.8,-10.73,-22.47,-22.93,0,*60
1489683812.75,55827,9.63,72926.3,-10.73,-21.93,-20.43,0,*64
1489683813.96,55828,9.63,72936.3,-10.73,-17.49,-16.45,0,*6A
1489683815.2,55829,9.63,72932.5,-10.75,-15.63,-15.75,0,*67
1489683816.44,55830,9.63,72916.5,-10.75,-15.99,-15.75,0,*6A
1489683817.71,55831,9.63,72950.8,-10.75,-13.61,-13.11,0,*6E
1489683819.0,55832,9.63,72938.8,-10.75,-12.83,-12.61,0,*66
1489683820.24,55833,9.63,72934.0,-10.75,-12.43,-12.43,0,*6B
1489683821.45,55834,9.63,72960.0,-10.73,-12.43,-12.39,0,*67
1489683822.72,55835,9.56,72982.5,-10.71,-12.35,-12.21,0,*6C
1489683823.95,55836,9.63,72968.5,-10.73,-12.29,-12.03,0,*60
1489683825.19,55837,9.63,72972.3,-10.73,-12.15,-12.03,0,*6E
1489683826.46,55838,9.63,72970.8,-10.73,-12.11,-12.11,0,*66
1489683827.75,55839,9.63,72952.3,-10.71,-12.07,-11.97,0,*6F
1489683829.02,55840,9.63,72906.0,-10.73,-12.15,-12.11,0,*6D
1489683830.27,55841,9.63,72940.3,-10.73,-12.15,-12.25,0,*6B
1489683831.51,55842,9.63,72934.0,-10.73,-12.29,-12.57,0,*62
1489683832.79,55843,9.63,72954.0,-10.73,-13.37,-14.01,0,*68
1489683834.02,55844,9.63,72978.3,-10.73,-14.97,-14.15,0,*67
1489683835.32,55845,9.63,72988.0,-10.71,-14.05,-12.83,0,*66
1489683836.61,55846,9.63,72992.0,-10.71,-12.57,-12.11,0,*6F
1489683837.85,55847,9.56,72918.8,-10.73,-12.15,-12.25,0,*6D
1489683839.1,55848,9.56,72948.3,-10.71,-12.21,-12.21,0,*63
1489683840.37,55849,9.63,72946.3,-10.71,-12.35,-12.39,0,*6E
1489683841.6,55850,9.63,72944.5,-10.71,-13.07,-13.07,0,*6A
1489683842.84,55851,9.63,72980.0,-10.71,-13.69,-13.65,0,*67
1489683844.1,55852,9.63,72984.8,-10.71,-14.65,-14.51,0,*6F
1489683845.39,55853,9.63,72984.8,-10.71,-15.81,-15.43,0,*67
1489683846.65,55854,9.56,72964.3,-10.71,-16.31,-15.95,0,*63
1489683847.94,55855,9.63,72960.0,-10.71,-16.31,-16.17,0,*6B
1489683849.19,55856,9.63,72950.3,-10.71,-17.49,-17.35,0,*67
1489683850.46,55857,9.63,72932.8,-10.73,-17.17,-15.85,0,*66
1489683851.71,55858,9.63,72928.0,-10.73,-14.43,-14.29,0,*6C
1489683852.95,55859,9.63,72922.0,-10.73,-15.89,-14.89,0,*60
1489683854.2,55860,9.63,72880.5,-10.73,-13.55,-13.01,0,*6A
1489683855.48,55861,9.63,72826.8,-10.71,-12.65,-12.65,0,*68
1489683856.72,55862,9.63,72830.3,-10.73,-13.11,-13.01,0,*68
1489683857.93,55863,9.63,72838.3,-10.73,-13.15,-12.89,0,*6C
1489683859.18,55864,9.63,72822.5,-10.73,-12.89,-12.57,0,*6C
1489683860.43,55865,9.63,72882.0,-10.73,-12.53,-12.29,0,*63
1489683861.69,55866,9.63,72878.5,-10.75,-12.25,-12.15,0,*68
1489683862.96,55867,9.63,72924.5,-10.73,-12.15,-12.11,0,*68
1489683864.21,55868,9.63,72902.5,-10.73,-12.15,-12.25,0,*60
1489683865.45,55869,9.63,72908.5,-10.73,-12.39,-12.61,0,*6F
1489683866.69,55870,9.63,72864.8,-10.73,-13.47,-13.83,0,*62
1489683867.93,55871,9.63,72954.3,-10.73,-13.87,-13.73,0,*60
1489683869.14,55872,9.63,72942.0,-10.73,-13.43,-13.43,0,*68
1489683870.38,55873,9.63,72914.8,-10.71,-13.51,-13.69,0,*60
1489683871.62,55874,9.63,72888.8,-10.71,-14.37,-14.19,0,*60
1489683872.88,55875,9.63,72904.8,-10.71,-17.11,-16.55,0,*6C
1489683874.15,55876,9.63,72896.0,-10.73,-14.83,-13.83,0,*6B
1489683875.42,55877,9.63,72942.5,-10.73,-13.61,-13.29,0,*61
1489683876.69,55878,9.63,72912.3,-10.73,-13.37,-13.29,0,*6D
1489683877.93,55879,9.63,72936.0,-10.71,-13.19,-12.97,0,*66
1489683879.19,55880,9.63,72916.0,-10.73,-12.83,-12.83,0,*65
1489683880.48,55881,9.63,72884.5,-10.71,-12.79,-12.83,0,*63
1489683881.75,55882,9.63,72916.3,-10.73,-12.83,-13.37,0,*69
1489683883.01,55883,9.63,72890.8,-10.73,-16.65,-17.93,0,*6E
1489683884.26,55884,9.63,72916.3,-10.73,-17.69,-15.85,0,*61
1489683885.5,55885,9.63,72926.8,-10.73,-16.31,-14.23,0,*61
1489683886.77,55886,9.63,72910.3,-10.71,-13.69,-12.71,0,*69
1489683888.03,55887,9.63,72914.8,-10.71,-12.47,-12.11,0,*63
1489683889.31,55888,9.63,72908.0,-10.73,-12.15,-11.89,0,*6B
1489683890.58,55889,9.63,72920.8,-10.73,-11.89,-11.89,0,*6C
1489683891.85,55890,9.63,72922.5,-10.73,-11.89,-11.85,0,*68
1489683893.12,55891,9.63,72940.0,-10.73,-11.93,-11.89,0,*6E
1489683894.37,55892,9.63,72958.0,-10.73,-12.11,-12.03,0,*65
1489683895.59,55893,9.63,72940.5,-10.73,-12.25,-12.25,0,*67
1489683896.86,55894,9.63,72928.0,-10.73,-12.15,-12.15,0,*60
1489683898.15,55895,9.63,72914.5,-10.71,-12.11,-12.11,0,*63
1489683899.44,55896,9.63,72864.5,-10.71,-12.11,-12.07,0,*67
1489683900.74,55897,9.63,72830.3,-10.71,-11.93,-11.93,0,*61
1489683902.03,55898,9.63,72902.3,-10.71,-11.85,-11.97,0,*6D
1489683903.27,55899,9.63,72934.3,-10.73,-12.15,-12.39,0,*63
1489683904.52,55900,9.63,72928.5,-10.73,-13.01,-14.15,0,*6E
1489683905.76,55901,9.63,72936.5,-10.73,-16.03,-17.03,0,*6C
1489683907.06,55902,9.63,72934.0,-10.71,-16.69,-15.57,0,*62
1489683908.28,55903,9.63,72932.8,-10.73,-13.55,-12.97,0,*60
1489683909.5,55904,9.63,72952.3,-10.73,-12.89,-12.97,0,*67
1489683910.71,55905,9.63,72976.8,-10.73,-13.47,-13.73,0,*6E
1489683911.97,55906,9.63,72944.3,-10.71,-14.33,-14.79,0,*66
1489683913.19,55907,9.63,72928.0,-10.73,-14.11,-13.47,0,*6F
1489683914.41,55908,9.63,72924.0,-10.73,-13.23,-13.23,0,*64
1489683915.68,55909,9.63,72908.8,-10.71,-13.33,-13.19,0,*6F
1489683916.93,55910,9.63,72998.0,-10.73,-13.23,-12.71,0,*6B
1489683918.17,55911,9.63,72954.5,-10.71,-12.47,-12.25,0,*6A
1489683919.41,55912,9.63,72966.5,-10.71,-12.39,-12.25,0,*60
1489683920.67,55913,9.63,72952.0,-10.71,-12.39,-12.11,0,*66
1489683921.96,55914,9.63,72964.8,-10.71,-12.11,-12.07,0,*6C
1489683923.23,55915,9.63,72992.0,-10.71,-12.21,-12.11,0,*69
1489683924.5,55916,9.63,72944.5,-10.71,-12.21,-12.07,0,*6D
1489683925.77,55917,9.63,72926.0,-10.71,-12.21,-12.11,0,*6B
1489683927.02,55918,9.63,72940.3,-10.71,-12.25,-12.21,0,*63
1489683928.27,55919,9.63,72944.0,-10.71,-12.25,-12.21,0,*62
1489683929.51,55920,9.63,72890.5,-10.71,-12.25,-12.25,0,*6C
1489683930.8,55921,9.63,72922.0,-10.71,-11.85,-11.93,0,*6A
1489683932.09,55922,9.63,72872.3,-10.71,-11.85,-11.85,0,*6E
1489683933.38,55923,9.63,72856.3,-10.71,-11.93,-11.85,0,*68
1489683934.67,55924,9.63,72884.3,-10.71,-11.85,-11.85,0,*68
1489683935.94,55925,9.63,72916.3,-10.73,-11.97,-11.89,0,*64
1489683937.21,55926,9.63,72920.8,-10.73,-11.89,-11.89,0,*68
1489683938.47,55927,9.63,72942.5,-10.73,-11.85,-11.77,0,*64
1489683939.76,55928,9.63,72926.5,-10.71,-11.97,-11.97,0,*64
1489683941.03,55929,9.63,72940.3,-10.73,-12.15,-12.15,0,*67
1489683942.32,55930,9.63,72938.5,-10.71,-11.97,-11.97,0,*6D
1489683943.59,55931,9.63,72950.5,-10.73,-11.97,-11.97,0,*6E
1489683944.88,55932,9.63,72924.0,-10.71,-11.93,-11.93,0,*6F
1489683946.17,55933,9.63,72926.0,-10.71,-11.93,-11.81,0,*6D
1489683947.47,55934,9.63,72940.5,-10.71,-11.93,-11.85,0,*6E
1489683948.76,55935,9.63,72990.5,-10.71,-11.93,-11.85,0,*6F
1489683950.05,55936,9.63,72990.5,-10.71,-11.81,-11.73,0,*66
1489683951.33,55937,9.63,72978.3,-10.71,-11.81,-11.81,0,*6A
1489683952.62,55938,9.63,72944.0,-10.71,-12.07,-12.07,0,*65
1489683953.86,55939,9.63,72926.8,-10.69,-12.11,-12.21,0,*6E
1489683955.09,55940,9.63,72926.3,-10.69,-12.21,-12.39,0,*6A
1489683956.33,55941,9.63,72932.8,-10.69,-12.57,-13.19,0,*69
1489683957.58,55942,9.63,72932.3,-10.69,-13.51,-13.97,0,*6B
1489683958.81,55943,9.63,72962.5,-10.69,-14.19,-14.65,0,*6B
1489683960.05,55944,9.63,72930.3,-10.71,-14.33,-14.37,0,*6A
1489683961.33,55945,9.63,72886.8,-10.71,-16.17,-16.27,0,*6C
1489683962.55,55946,9.63,72958.5,-10.69,-15.71,-15.11,0,*63
1489683963.82,55947,9.63,72938.0,-10.67,-16.03,-14.51,0,*6F
1489683965.06,55948,9.63,72934.8,-10.71,-13.43,-13.23,0,*64
1489683966.29,55949,9.63,72932.5,-10.69,-13.33,-13.43,0,*6D
1489683967.59,55950,9.63,72938.5,-10.71,-13.97,-13.97,0,*6B
1489683968.86,55951,9.63,72940.5,-10.71,-14.83,-15.07,0,*67
1489683970.15,55952,9.63,72948.3,-10.71,-14.79,-14.51,0,*63
1489683971.42,55953,9.63,72940.5,-10.71,-14.05,-13.23,0,*6B
1489683972.66,55954,9.63,72944.8,-10.73,-12.89,-13.01,0,*6C
1489683973.87,55955,9.63,72946.8,-10.69,-12.93,-13.23,0,*6D
1489683975.1,55956,9.63,72950.8,-10.69,-13.19,-13.19,0,*64
1489683976.32,55957,9.63,72936.3,-10.69,-13.23,-13.55,0,*64
1489683977.55,55958,9.63,72946.3,-10.71,-13.93,-14.11,0,*6E
1489683978.82,55959,9.63,72958.8,-10.71,-14.97,-16.31,0,*6C
1489683980.09,55960,9.63,72962.8,-10.71,-17.49,-18.01,0,*6B
1489683981.35,55961,9.63,72928.5,-10.71,-16.75,-17.17,0,*6C
1489683982.6,55962,9.63,72942.0,-10.69,-18.01,-18.11,0,*62
1489683983.85,55963,9.63,72932.3,-10.69,-17.21,-17.35,0,*67
1489683985.08,55964,9.63,72940.5,-10.71,-18.65,-18.25,0,*68
1489683986.34,55965,9.63,72942.5,-10.71,-18.65,-18.55,0,*6E
1489683987.61,55966,9.63,72942.8,-10.69,-17.59,-17.59,0,*67
1489683988.81,55967,9.63,72946.3,-10.69,-18.25,-18.25,0,*66
1489683990.05,55968,9.63,72944.5,-10.71,-19.75,-19.47,0,*61
1489683991.3,55969,9.63,72944.8,-10.73,-21.47,-20.53,0,*67
1489683992.56,55970,9.63,72960.8,-10.71,-22.07,-20.53,0,*6A
1489683993.77,55971,9.63,72936.5,-10.73,-20.69,-18.83,0,*65
1489683995.02,55972,9.63,72938.3,-10.73,-16.89,-16.17,0,*6E
1489683996.31,55973,9.63,72936.0,-10.71,-15.57,-14.97,0,*67
1489683997.52,55974,9.63,72930.5,-10.73,-14.29,-14.11,0,*64
1489683998.8,55975,9.63,72934.5,-10.73,-14.83,-14.97,0,*6B
1489684000.04,55976,9.63,72932.5,-10.73,-14.55,-14.15,0,*69
1489684001.3,55977,9.63,72946.3,-10.71,-15.43,-13.93,0,*65
1489684002.58,55978,9.63,72930.0,-10.73,-14.47,-12.57,0,*64
1489684003.82,55979,9.63,72934.8,-10.73,-12.61,-12.25,0,*62
1489684005.07,55980,9.63,72924.8,-10.73,-12.15,-12.03,0,*63
1489684006.35,55981,9.63,72924.8,-10.71,-11.97,-12.15,0,*6E
1489684007.64,55982,9.63,72934.8,-10.71,-12.07,-11.97,0,*6E
1489684008.93,55983,9.63,72936.0,-10.71,-12.11,-11.93,0,*6C
1489684010.23,55984,9.63,72934.5,-10.71,-11.93,-11.81,0,*61
1489684011.51,55985,9.63,72922.0,-10.71,-11.81,-11.81,0,*63
1489684012.79,55986,9.63,72906.8,-10.71,-11.85,-11.81,0,*64
1489684014.07,55987,9.63,72914.0,-10.71,-11.85,-11.81,0,*65
1489684015.36,55988,9.63,72912.8,-10.71,-11.85,-11.81,0,*6A
1489684016.64,55989,9.63,72932.8,-10.71,-11.85,-11.85,0,*6F
1489684017.94,55990,9.63,72896.0,-10.71,-11.93,-11.85,0,*60
1489684019.23,55991,9.63,72880.0,-10.71,-11.93,-11.85,0,*61
1489684020.51,55992,9.63,72930.3,-10.71,-11.73,-11.81,0,*68
1489684021.79,55993,9.63,72976.3,-10.71,-11.93,-12.25,0,*6A
1489684023.08,55994,9.63,72934.3,-10.71,-13.83,-13.33,0,*68
1489684024.35,55995,9.63,72888.8,-10.71,-12.97,-12.71,0,*6A
1489684025.64,55996,9.63,72866.8,-10.71,-12.71,-12.79,0,*69
1489684026.9,55997,9.63,72838.0,-10.71,-12.83,-13.11,0,*6A
1489684028.14,55998,9.63,72900.0,-10.73,-13.55,-13.83,0,*66
1489684029.42,55999,9.63,72868.0,-10.71,-13.97,-14.65,0,*64
1489684030.69,56000,9.63,72914.5,-10.71,-14.43,-15.25,0,*65
1489684031.91,56001,9.63,72908.3,-10.73,-15.75,-16.03,0,*65
1489684033.17,56002,9.63,72968.3,-10.71,-15.11,-14.83,0,*6C
1489684034.42,56003,9.63,72968.3,-10.73,-14.33,-13.97,0,*6C
1489684035.71,56004,9.63,72994.5,-10.71,-14.43,-14.97,0,*69
1489684036.95,56005,9.63,72966.3,-10.69,-18.25,-17.59,0,*6C
1489684038.19,56006,9.63,72968.8,-10.73,-19.03,-18.89,0,*63
1489684039.43,56007,9.63,72952.0,-10.73,-20.99,-19.03,0,*68
1489684040.72,56008,9.63,72946.8,-10.71,-17.59,-15.85,0,*6F
1489684041.98,56009,9.63,72924.3,-10.71,-15.57,-14.19,0,*66
1489684043.2,56010,9.63,72924.5,-10.73,-13.55,-13.11,0,*67
1489684044.41,56011,9.63,72930.5,-10.73,-13.43,-13.43,0,*66
1489684045.69,56012,9.63,72950.8,-10.73,-13.83,-13.61,0,*69
1489684046.95,56013,9.63,72944.8,-10.73,-13.87,-13.37,0,*6F
1489684048.24,56014,9.63,72916.0,-10.71,-13.33,-12.83,0,*6B
1489684049.48,56015,9.63,72922.3,-10.71,-12.47,-12.25,0,*64
1489684050.73,56016,9.63,72936.8,-10.71,-12.21,-12.25,0,*67
1489684052.01,56017,9.63,72954.0,-10.71,-12.65,-12.65,0,*62
1489684053.23,56018,9.63,72948.8,-10.73,-13.07,-13.11,0,*68
1489684054.44,56019,9.63,72946.3,-10.73,-15.11,-14.19,0,*67
1489684055.68,56020,9.63,72958.8,-10.73,-14.43,-13.15,0,*60
1489684056.95,56021,9.63,72920.0,-10.73,-13.01,-12.71,0,*63
1489684058.23,56022,9.63,72874.0,-10.73,-12.75,-12.61,0,*63
1489684059.51,56023,9.63,72788.8,-10.71,-12.71,-12.57,0,*61
1489684060.78,56024,9.63,72876.0,-10.73,-12.71,-12.61,0,*61
1489684062.05,56025,9.63,72924.0,-10.73,-12.57,-12.61,0,*64
1489684063.31,56026,9.63,72916.3,-10.73,-12.61,-12.61,0,*62
1489684064.58,56027,9.63,72924.0,-10.73,-12.71,-12.61,0,*62
1489684065.85,56028,9.63,72948.0,-10.73,-12.61,-12.71,0,*6D
1489684067.1,56029,9.63,72930.5,-10.73,-12.75,-12.97,0,*61
1489684068.34,56030,9.63,72936.5,-10.71,-13.11,-13.43,0,*60
1489684069.57,56031,9.63,72908.8,-10.71,-13.55,-13.51,0,*62
1489684070.82,56032,9.63,72834.5,-10.73,-13.83,-13.47,0,*6F
1489684072.04,56033,9.63,72938.3,-10.73,-13.55,-13.23,0,*67
1489684073.31,56034,9.63,72968.5,-10.73,-13.01,-12.57,0,*63
1489684074.52,56035,9.63,72904.8,-10.73,-12.89,-12.43,0,*66
1489684075.77,56036,9.63,72868.5,-10.73,-12.89,-12.57,0,*60
1489684077.03,56037,9.63,72922.8,-10.73,-12.83,-12.61,0,*6E
1489684078.25,56038,9.63,72918.3,-10.73,-13.11,-13.11,0,*6D
1489684079.49,56039,9.63,72914.5,-10.73,-13.29,-13.11,0,*67
1489684080.75,56040,9.63,72880.8,-10.73,-12.83,-13.01,0,*69
1489684082.03,56041,9.63,72850.3,-10.73,-13.83,-13.29,0,*63
1489684083.29,56042,9.63,72862.0,-10.71,-12.79,-12.39,0,*66
1489684084.51,56043,9.63,72854.0,-10.73,-12.29,-12.25,0,*6D
1489684085.76,56044,9.63,72860.0,-10.73,-12.39,-12.35,0,*6A
1489684087.03,56045,9.63,72888.5,-10.71,-12.47,-12.35,0,*60
1489684088.3,56046,9.63,72888.5,-10.73,-12.57,-12.53,0,*60
1489684089.56,56047,9.69,72878.3,-10.73,-12.61,-12.61,0,*65
1489684090.83,56048,9.63,72914.5,-10.71,-12.53,-12.47,0,*6D
1489684092.05,56049,9.63,72894.3,-10.73,-12.97,-13.11,0,*64
1489684093.31,56050,9.63,72884.5,-10.71,-13.07,-13.33,0,*66
1489684094.57,56051,9.63,72910.8,-10.71,-13.65,-14.05,0,*61
1489684095.8,56052,9.63,72914.8,-10.73,-15.25,-15.49,0,*6B
1489684097.06,56053,9.63,72936.0,-10.71,-15.11,-14.05,0,*66
1489684098.3,56054,9.63,72954.0,-10.71,-13.11,-13.11,0,*65
1489684099.54,56055,9.69,72956.0,-10.71,-13.11,-13.19,0,*6C
1489684100.77,56056,9.69,72944.5,-10.71,-13.11,-13.43,0,*60
1489684102.04,56057,9.69,72954.8,-10.73,-13.37,-13.37,0,*64